TimeCST,TemperatureF,Dew PointF,Humidity,Sea Level PressureIn,VisibilityMPH,Wind Direction,Wind SpeedMPH,Gust SpeedMPH,PrecipitationIn,Events,Conditions,WindDirDegrees,DateUTC
12:52 AM,33.1,32.0,96,30.12,3.0,Calm,Calm,-,N/A,,Clear,0,2012-11-09 06:52:00
1:52 AM,32.0,30.9,96,30.12,3.0,East,4.6,-,N/A,,Clear,90,2012-11-09 07:52:00
2:52 AM,34.0,33.1,96,30.10,3.0,SE,4.6,-,N/A,,Clear,130,2012-11-09 08:52:00
3:39 AM,33.8,32.0,93,30.08,2.5,SE,5.8,-,N/A,,Clear,140,2012-11-09 09:39:00
3:52 AM,33.1,32.0,96,30.09,2.5,SE,4.6,-,N/A,,Clear,130,2012-11-09 09:52:00
4:52 AM,33.1,33.1,100,30.10,2.5,SE,3.5,-,N/A,,Clear,140,2012-11-09 10:52:00
5:52 AM,33.1,32.0,96,30.09,2.5,ESE,3.5,-,N/A,,Scattered Clouds,120,2012-11-09 11:52:00
6:45 AM,33.8,32.0,93,30.08,1.5,SE,3.5,-,N/A,,Clear,130,2012-11-09 12:45:00
6:52 AM,33.1,32.0,96,30.11,1.5,SE,4.6,-,N/A,,Partly Cloudy,140,2012-11-09 12:52:00
7:52 AM,37.0,36.0,96,30.10,2.0,SE,5.8,-,N/A,,Overcast,140,2012-11-09 13:52:00
8:38 AM,39.2,37.4,93,30.07,3.0,SSE,6.9,-,N/A,,Overcast,150,2012-11-09 14:38:00
8:52 AM,41.0,37.9,89,30.09,3.0,SSE,5.8,-,N/A,,Overcast,160,2012-11-09 14:52:00
9:52 AM,44.1,39.0,82,30.08,5.0,SSE,8.1,-,N/A,,Haze,160,2012-11-09 15:52:00
10:52 AM,48.9,42.1,77,30.07,6.0,SSE,9.2,-,N/A,,Haze,160,2012-11-09 16:52:00
11:52 AM,50.0,42.1,74,30.06,6.0,SSE,5.8,-,N/A,,Haze,160,2012-11-09 17:52:00
12:52 PM,52.0,43.0,71,30.03,7.0,SE,6.9,-,N/A,,Mostly Cloudy,140,2012-11-09 18:52:00
1:52 PM,52.0,43.0,71,30.00,7.0,ESE,8.1,-,N/A,,Overcast,110,2012-11-09 19:52:00
2:52 PM,55.0,43.0,64,30.00,7.0,ESE,8.1,-,N/A,,Partly Cloudy,110,2012-11-09 20:52:00
3:52 PM,55.0,45.0,69,29.99,7.0,SE,6.9,-,N/A,,Mostly Cloudy,140,2012-11-09 21:52:00
4:52 PM,51.1,45.0,80,29.99,8.0,SE,5.8,-,N/A,,Clear,140,2012-11-09 22:52:00
5:52 PM,48.9,44.1,83,29.99,7.0,ESE,5.8,-,N/A,,Clear,120,2012-11-09 23:52:00
6:52 PM,48.9,44.1,83,29.99,6.0,East,6.9,-,N/A,,Haze,90,2012-11-10 00:52:00
7:52 PM,51.1,46.0,83,29.99,7.0,East,4.6,-,N/A,,Overcast,100,2012-11-10 01:52:00
8:52 PM,52.0,46.0,80,29.99,8.0,ESE,5.8,-,N/A,,Overcast,110,2012-11-10 02:52:00
9:52 PM,48.9,45.0,86,29.99,7.0,East,5.8,-,N/A,,Partly Cloudy,80,2012-11-10 03:52:00
10:52 PM,48.0,44.1,86,29.99,6.0,East,4.6,-,N/A,,Scattered Clouds,100,2012-11-10 04:52:00
11:52 PM,52.0,46.0,80,29.99,8.0,ESE,4.6,-,N/A,,Overcast,110,2012-11-10 05:52:00